HINODE (SOLAR-B)

Last updated on Thu Nov 21 2024 00:03:26 GMT+0000 (Coordinated Universal Time)

1 29479U 06041A 24325.49234252 .00001511 00000+0 27652-3 0 9991 2 29479 98.0835 338.6751 0016757 309.7732 50.1996 14.67216972970692
UTC large
Height (km)
Speed (km/s)
/
Latitude / Longitude
Inclination (degrees)
Orbital Period (minutes)
Azimuth
Elevation
Range (km)
Doppler Factor

Next 0 passes for location: London (51.5072 / 0.1276)

Sorry there are no passes over London.